CZ-3C DEB, 40206

Orbit data source: Space-Track

CZ-3C DEB, 40206 is space debris in HEO originally from a launch on Fri, 24 Feb 2012 UTC launched from the Xichang Space Center, China (XSC). Debris objects in space refer to the collection of defunct objects orbiting the Earth. Examples of debris include non-operational satellites, rocket bodies, and fragments generated from explosions, collisions, or faulty payload assembly.

Loading next visibility...
Identifier
40206, 2012-008R
Orbit
HEO
Country
Flag of CNCN / PRC
Related business
Manufacturer
CALT
Mission
Spacecraft
Bus & Motor
Unknown
Mass
Unknown
Launch date (UTC)
2012-02-24 (14 years ago)
Launch vehicle
Unknown
Launch site
Xichang Space Center, China (XSC)
Object type
Payload
Rocket body
Debris
Shape & HBR
Unknown shape, 0.1 m
Radar Cross Section
Medium (>0.1 m² and <1 m²)

Expand to show TLE details & history
Last TLE update: 14 hours ago

TLE from 14 hours ago
0 CZ-3C DEB
1 40206U 12008R   25346.80720621  .00001249  00000-0  10222-1 0  9993
2 40206  18.0228  67.6767 7252652 202.2892  94.3787  2.19187500 89769
Epoch: 2025-12-12T19:22Z
TLE epoch observation values (Epoch: 2025-12-12T19:22:22.616Z)
Latitude
0.00001°
Longitude
55.34032°
Altitude
29,708.517 km
Speed
2.484 km/s
True Right ascension
04h 30m 42s
True Declination
0° 00' 00"
Sunlit
Object was in daylight at epoch
Visualization orbit readout
Latitude
Unknown
Longitude
Unknown
Altitude
Unknown
Speed
Unknown
Apparent Right ascension
Unknown
Apparent Declination
Unknown
Sunlit
N/A
Visualization observer readout
Local Sidereal Time
07:30:58
Azimuth
Unknown
Elevation
Unknown
Doppler factor
Unknown
Orbital elements
Apogee altitude
36,819.589 km
Perigee altitude
500.758 km
Semi-major axis
25,038.311 km
Eccentricity
0.72527
Inclination
18.0228°
RAAN
67.6767°
Arg. of periapsis
202.2892°
True anomaly
157.68301°
Mean anomaly
94.3787°
Eccentric anomaly
127.39327°
Mean motion
0.54782 °/min
Orbital period
657.15 mins
BSTAR
0.010222
Loading maneuver chart data...
Computing Atmospheric mass density...
Loading historical data...
Loading historical data...
Loading historical data...
Loading historical data...
Loading historical data...
Loading historical data...
Loading historical data...

Documentation

Showing up to 5 results
|